This demonstration page uses our WeatherBlox Daily Observations layout. Learn more.

Left ArrowRight Arrow

53.62937, 11.41316

Hourly Observations for January 13, 2016

Temp ( °F °C ) Dew Point ( °F °C ) Humidity (%) Winds ( mph kmh ) Pressure ( in mb ) Visibility ( mi km ) Precip ( " mm )
5:20 am 05:20 Mostly Cloudy 39 4 36 2 87 87 SW 10 17 29.41 996 30 48 N/A
5:50 am 05:50 Mostly Cloudy 37 3 36 2 93 93 SW 10 17 29.41 996 30 48 N/A
6:20 am 06:20 Mostly Cloudy 37 3 36 2 93 93 WSW 6 9 29.41 996 30 48 N/A
6:50 am 06:50 Mostly Cloudy 37 3 37 3 100 100 WSW 8 13 29.44 997 5 8 N/A
7:20 am 07:20 Mostly Cloudy 37 3 37 3 100 100 WSW 8 13 29.44 997 5 8 N/A
7:50 am 07:50 Mostly Cloudy 37 3 37 3 100 100 WSW 7 11 29.44 997 4 7 N/A
8:20 am 08:20 Cloudy 37 3 36 2 93 93 WSW 6 9 29.47 998 4 6 N/A
8:50 am 08:50 Cloudy with Mist and Fog 37 3 36 2 93 93 W 7 11 29.47 998 3 5 N/A
9:20 am 09:20 Cloudy with Mist and Fog 37 3 37 3 100 100 W 8 13 29.50 999 3 5 N/A
9:50 am 09:50 Cloudy with Mist and Fog 37 3 37 3 100 100 WSW 8 13 29.50 999 3 5 N/A
10:20 am 10:20 Cloudy with Mist and Fog 37 3 37 3 100 100 W 8 13 29.53 1000 3 5 N/A
10:50 am 10:50 Cloudy with Mist and Fog 37 3 37 3 100 100 W 8 13 29.53 1000 3 5 N/A
11:20 am 11:20 Cloudy with Mist and Fog 37 3 37 3 100 100 W 8 13 29.56 1001 2 4 N/A
11:50 am 11:50 Cloudy with Light Rain 37 3 37 3 100 100 W 9 15 29.56 1001 1 2 N/A
12:20 pm 12:20 Mostly Cloudy with Light Rain 37 3 36 2 93 93 W 7 11 29.59 1002 5 8 N/A
12:50 pm 12:50 Cloudy with Light Rain/Snow 36 2 36 2 100 100 N 13 20 29.62 1003 2 3 N/A
1:20 pm 13:20 Mostly Cloudy with Light Snow 34 1 32 0 93 93 N 9 15 29.65 1004 4 6 N/A
1:50 pm 13:50 Mostly Cloudy with Light Snow 32 0 32 0 100 100 N 8 13 29.68 1005 3 4 N/A
2:20 pm 14:20 Mostly Cloudy with Light Snow 34 1 32 0 93 93 NNW 6 9 29.71 1006 4 7 N/A
2:50 pm 14:50 Cloudy 34 1 32 0 93 93 NNW 8 13 29.74 1007 30 48 N/A
3:20 pm 15:20 Cloudy 34 1 32 0 93 93 NW 10 17 29.77 1008 30 48 N/A
3:50 pm 15:50 Cloudy 34 1 32 0 93 93 NW 9 15 29.77 1008 30 48 N/A
4:20 pm 16:20 Cloudy 34 1 32 0 93 93 NW 9 15 29.80 1009 30 48 N/A
4:50 pm 16:50 Cloudy 34 1 32 0 93 93 NW 6 9 29.83 1010 30 48 N/A
5:20 pm 17:20 Cloudy 34 1 32 0 93 93 W 5 7 29.83 1010 30 48 N/A
5:50 pm 17:50 Cloudy 34 1 32 0 93 93 W 5 7 29.83 1010 30 48 N/A

Powered by AerisWeather